Helicity
189 226 260 324 294 255 221 203 194 185 182 179 168 167 142 130 103 95 86 88 66 39
267 197 239 301 306 290 257 238 208 204 190 176 162 162 152 130 115 97 71 78 68 38
322 232 228 357 310 288 249 227 209 210 183 172 142 141 147 129 123 118 78 81 79 54
452 331 238 255 341 304 270 226 200 196 194 164 143 125 124 124 146 129 109 95 99 70
329 187 156 200 280 304 222 204 202 190 186 161 129 130 121 134 121 143 143 105 107 107
188 120 170 175 239 243 242 216 197 190 171 150 126 116 113 133 152 159 158 138 126 147
182 109 195 160 225 226 219 213 181 163 159 147 135 116 146 155 150 151 140 127 116 149
275 177 176 166 207 229 204 179 191 177 161 154 140 132 146 151 157 141 129 106 97 106
212 283 169 161 207 219 200 180 176 141 154 133 107 97 137 167 162 156 145 122 102 90
174 146 132 159 173 209 209 178 118 131 153 114 103 101 133 173 161 165 152 150 148 132
215 121 138 155 164 211 199 174 128 105 123 119 120 112 126 152 158 140 139 157 167 163
216 72 104 181 201 147 127 160 119 122 142 126 135 126 145 157 155 129 124 136 147 148
230 137 146 263 158 107 173 169 158 148 149 160 161 141 158 175 186 157 157 145 136 131
278 230 299 253 108 183 199 208 196 163 162 156 160 160 153 186 195 190 183 163 167 140
Wind_Speed
87 91 77 64 57 46 38 33 26 27 25 25 25 25 25 25 24 24 31 30 27 13
86 88 78 67 57 48 40 34 29 28 27 26 28 29 26 22 24 25 29 30 28 23
86 90 81 68 59 50 43 36 31 31 30 29 29 30 27 22 20 26 26 23 22 13
93 95 87 75 61 53 46 38 35 34 34 32 32 32 28 22 21 23 20 15 23 16
86 93 92 76 64 55 47 41 39 37 37 33 32 32 30 25 20 22 21 18 16 14
98 93 90 77 63 53 50 44 42 39 38 36 34 32 28 24 21 19 19 17 17 14
102 106 92 79 66 57 50 46 42 41 39 36 34 32 28 24 21 19 18 18 17 14
90 99 85 79 64 59 51 48 45 43 41 37 34 31 28 25 22 20 18 17 16 14
77 88 80 74 68 55 52 50 48 43 40 39 36 32 30 25 25 22 20 19 16 13
69 80 78 73 63 56 51 57 46 43 44 42 38 33 30 27 26 26 23 20 17 15
62 72 75 72 65 59 54 55 47 43 45 42 41 34 30 27 29 28 24 21 18 16
56 70 72 76 64 61 57 55 48 44 43 43 41 37 33 30 32 33 28 23 19 18
62 75 69 83 69 65 61 54 47 46 48 47 41 40 36 33 35 32 31 30 27 21
60 62 63 72 69 61 59 55 50 50 48 46 44 43 38 36 36 36 33 31 31 29
Wind_Direction
231 232 235 233 231 229 225 231 216 200 201 197 187 177 172 168 169 166 166 166 164 113
229 229 231 228 228 228 231 228 213 208 206 203 190 181 180 180 176 173 170 172 170 178
232 228 230 224 226 227 230 225 213 209 213 203 195 187 185 188 188 180 178 176 172 166
231 227 227 228 226 226 227 221 216 213 214 206 195 191 192 196 195 191 189 190 179 177
228 222 226 229 228 227 223 224 221 221 217 211 201 196 197 198 209 198 196 194 187 182
224 222 229 228 226 223 227 224 223 218 213 208 206 204 207 210 212 213 203 199 189 188
226 224 228 227 226 227 226 221 217 219 219 215 214 213 212 215 220 220 211 203 198 194
227 225 226 225 225 226 221 221 221 221 226 222 215 213 212 224 228 224 226 225 211 204
226 222 219 223 225 219 222 223 221 215 219 221 224 215 206 219 236 237 235 227 227 232
229 223 223 223 222 219 218 224 214 217 225 226 230 221 215 221 240 244 244 239 239 247
236 225 221 223 222 223 222 221 213 215 225 228 234 228 223 225 247 252 248 243 238 240
236 224 225 228 221 221 222 224 219 218 222 228 235 231 231 230 248 255 255 254 251 246
235 226 224 233 222 224 225 225 224 227 232 234 235 236 233 236 249 250 257 264 265 254
232 232 234 224 223 225 227 230 228 232 236 237 239 242 236 234 246 252 255 258 263 264